[Date Prev][Date Next][Thread Prev][Thread Next] - [Date Index][Thread Index][Author Index]
2 Line ISS Keps 6-24
- Subject: [sarex] 2 Line ISS Keps 6-24
- From: "Dave Larsen PhD" <doc@xxxxxxxxxxx>
- Date: Sun, 24 Jun 2001 04:37:09 -0700
ISS
1 25544U 98067A 01175.21655093 .00046455 00000-0 50579-3 0 1271
2 25544 51.5739 53.1437 0016702 198.6293 306.9841 15.62776768148176
----
Via the sarex mailing list at AMSAT.ORG courtesy of AMSAT-NA.
To unsubscribe, send "unsubscribe sarex" to Majordomo@amsat.org
AMSAT Home